This is the latest recevied weather packets stored in our database for station/object W3JGB. If no packets are shown the sender has not sent any weather packets the latest 10 day(s).
| Time | Temp. | Humidity | Pressure | Rain* | Wind** | Luminosity | Snow |
|---|---|---|---|---|---|---|---|
| 1778270748 | 18.33° C | 49% | 1010.1 hPa | 0 mm | - | 622 W/m² | - |
| 1778270444 | 18.33° C | 45% | 1010.3 hPa | 0 mm | - | 626 W/m² | - |
| 1778270141 | 18.89° C | 47% | 1010.3 hPa | 0 mm | - | 607 W/m² | - |
| 1778269837 | 18.33° C | 50% | 1010.2 hPa | 0 mm | - | 386 W/m² | - |
| 1778269534 | 18.33° C | 47% | 1010.1 hPa | 0 mm | - | 644 W/m² | - |
| 1778269232 | 17.78° C | 49% | 1010.3 hPa | 0 mm | - | 722 W/m² | - |
| 1778268927 | 17.22° C | 49% | 1010.3 hPa | 0 mm | - | 347 W/m² | - |
| 1778268624 | 17.78° C | 49% | 1010.3 hPa | 0 mm | - | 257 W/m² | - |
| 1778268321 | 17.78° C | 50% | 1010.4 hPa | 0 mm | - | 678 W/m² | - |
| 1778268019 | 17.78° C | 50% | 1010.5 hPa | 0 mm | - | 735 W/m² | - |
| 1778267715 | 17.22° C | 56% | 1010.6 hPa | 0 mm | - | 696 W/m² | - |
| 1778267412 | 16.67° C | 55% | 1010.8 hPa | 0 mm | - | 704 W/m² | - |
| 1778267109 | 16.11° C | 60% | 1010.8 hPa | 0 mm | - | 689 W/m² | - |
| 1778266805 | 15.56° C | 58% | 1010.8 hPa | 0 mm | - | 717 W/m² | - |
| 1778266503 | 14.44° C | 62% | 1011.1 hPa | 0 mm | - | 755 W/m² | - |
| 1778266200 | 14.44° C | 62% | 1011.4 hPa | 0 mm | - | 223 W/m² | - |
| 1778265898 | 15° C | 55% | 1011.2 hPa | 0 mm | - | 107 W/m² | - |
| 1778265594 | 15° C | 54% | 1011.2 hPa | 0 mm | - | 44 W/m² | - |
| 1778265290 | 15° C | 52% | 1011.1 hPa | 0 mm | - | 35 W/m² | - |
| 1778264986 | 15.56° C | 53% | 1010.6 hPa | 0 mm | - | 39 W/m² | - |
| 1778264683 | 16.67° C | 54% | 1010.7 hPa | 0 mm | - | 101 W/m² | - |
| 1778264378 | 17.22° C | 56% | 1010.8 hPa | 0 mm | - | 524 W/m² | - |
| 1778264075 | 16.67° C | 56% | 1011 hPa | 0 mm | - | 719 W/m² | - |
| 1778263773 | 15.56° C | 59% | 1010.9 hPa | 0 mm | - | 789 W/m² | - |
| 1778263469 | 15° C | 56% | 1011.1 hPa | 0 mm | - | 595 W/m² | - |
* Rain latest hour (hover to see other rain measurements)
** Current wind speed in m/s (hover to see current wind gust speed)